GEFSSGP_500_meanwind_168.txt.gz
Wind_Speed
15 14 13 13 11 11 10 10 9 8 7 6 5 4 4 5 4 4 5 4 5 6 6 7 8 9 10 10 11 11 11 10 10 9 9 10 10 10 10 9 9 9 9 9 9 9 9 9 10
16 15 14 13 13 12 12 12 10 10 9 7 6 5 6 6 5 5 6 6 7 8 9 9 10 10 11 12 12 12 12 11 11 11 10 11 11 11 11 10 10 11 11 10 10 10 10 10 11
17 16 15 14 14 14 14 14 12 11 10 9 7 7 7 7 7 7 7 8 8 9 10 11 11 12 13 14 14 13 13 13 12 12 12 12 12 12 12 12 12 12 12 12 12 12 12 12 12
17 16 16 15 15 15 15 14 13 12 11 11 10 9 9 9 9 10 10 10 10 11 11 12 12 13 14 15 15 14 14 14 13 13 13 13 14 13 13 13 13 13 13 13 13 14 14 13 13
16 16 15 15 15 16 16 14 14 13 13 12 12 11 10 10 11 12 12 12 12 12 13 13 14 15 15 16 16 15 15 15 15 15 15 15 15 15 15 15 15 15 14 14 14 15 15 15 15
16 15 15 15 16 16 16 15 14 13 13 13 13 13 13 12 12 13 13 13 13 13 14 14 15 15 16 17 17 17 16 16 16 16 16 17 17 17 17 16 16 16 16 15 16 16 16 16 16
15 15 15 15 16 16 16 15 14 14 13 14 15 15 15 14 14 15 15 14 14 15 15 15 15 16 17 18 18 18 18 18 18 18 18 18 18 18 18 18 18 18 18 17 17 17 17 17 17
15 15 15 15 16 17 16 15 15 15 15 15 16 16 16 16 16 16 16 16 16 16 16 16 16 17 18 19 19 20 20 20 20 20 20 20 20 20 20 20 19 19 19 19 19 19 19 19 18
15 14 15 16 16 17 15 15 16 16 16 16 17 17 16 16 17 17 17 17 17 17 18 19 18 19 20 20 20 21 21 21 21 21 21 22 22 22 21 21 21 21 21 21 21 21 20 20 20
15 16 17 17 16 16 16 16 16 17 17 17 17 18 18 18 17 17 17 17 18 18 19 20 20 21 21 21 22 22 22 22 22 22 23 23 24 24 23 22 23 23 23 22 22 22 22 22 22
16 17 17 17 16 16 16 16 16 17 18 18 18 18 18 19 19 19 19 19 20 20 21 21 22 23 23 23 23 23 23 23 24 24 25 24 24 24 24 23 23 24 24 23 23 23 24 25 24
15 16 17 17 16 16 17 17 17 18 18 19 19 19 20 20 21 20 20 20 21 22 22 23 23 24 24 24 24 24 25 25 25 25 25 25 25 24 24 24 25 25 25 25 25 24 25 25 26
14 15 16 17 17 17 17 18 18 18 19 20 20 21 21 21 21 20 21 22 22 22 23 23 23 24 24 25 25 25 26 26 26 26 26 26 25 25 26 26 26 27 27 27 27 26 26 26 26
13 14 15 16 17 17 18 18 18 19 20 20 20 21 22 22 22 21 22 22 23 23 23 24 25 25 25 26 26 26 27 27 27 27 27 27 27 27 27 27 27 28 28 28 28 28 28 27 27
12 13 15 16 17 17 18 18 19 19 19 19 20 21 22 23 23 23 23 23 23 24 24 25 25 25 26 26 25 25 26 26 27 27 27 28 28 28 28 28 29 28 28 28 29 29 29 29 29
11 13 14 16 16 17 17 16 18 18 19 19 20 21 21 22 23 24 24 23 23 24 25 25 26 26 26 25 25 25 26 27 27 27 28 28 28 28 28 29 29 29 28 29 30 30 30 29 30
11 12 15 16 16 17 17 17 18 19 19 20 20 21 21 22 23 24 24 24 24 24 25 25 25 26 25 25 25 25 26 28 28 29 30 29 29 29 29 30 30 30 30 30 31 31 30 30 31
12 13 15 16 16 16 16 17 18 18 19 19 19 20 21 21 22 23 24 24 24 24 25 25 25 25 25 25 25 26 27 28 29 30 31 32 31 30 30 30 31 31 31 31 31 31 31 31 31
13 14 15 16 16 16 17 18 18 18 18 19 20 20 19 20 21 22 23 23 23 24 24 24 25 26 25 25 26 26 27 28 29 30 30 30 30 30 30 31 32 32 32 32 31 32 32 32 32
13 13 14 15 16 17 18 19 19 19 19 20 20 20 19 19 20 21 21 21 22 23 24 25 25 26 25 26 26 26 27 27 28 29 30 30 29 29 30 31 32 32 32 32 32 32 33 33 33
12 13 14 14 16 17 18 17 18 18 19 19 19 18 18 19 20 21 21 22 22 22 23 24 25 25 26 26 26 27 27 28 28 29 30 30 30 30 30 30 31 32 32 31 31 31 32 33 33
12 13 14 15 16 16 16 16 17 18 19 19 18 19 19 20 20 21 21 22 23 23 24 24 25 25 26 27 27 27 28 29 29 29 29 30 30 29 29 29 30 30 30 31 32 32 33 33 32
13 14 15 16 16 17 17 17 17 18 18 19 19 20 20 20 20 21 22 22 23 23 24 25 26 26 26 27 28 28 28 29 30 30 29 29 29 29 29 29 29 29 30 31 32 32 32 32 31
13 14 15 15 15 16 17 17 18 17 19 20 19 19 19 20 20 21 22 22 23 23 24 25 25 26 26 27 27 27 28 29 29 29 28 28 28 28 28 28 29 30 31 31 31 31 31 31 31
14 14 14 14 15 16 18 17 17 18 19 20 20 20 20 20 20 20 21 21 22 23 24 25 25 26 26 26 26 26 27 28 28 28 28 28 28 27 28 28 29 30 31 31 30 31 31 30 30
15 15 16 17 17 17 17 17 18 19 20 20 20 19 19 19 19 20 20 21 21 22 23 24 24 25 25 25 26 26 26 27 27 27 27 27 26 26 28 28 28 29 29 29 29 29 29 28 29
16 16 17 19 20 20 19 19 19 19 19 20 19 18 18 18 19 19 20 20 20 21 22 22 22 23 24 25 26 26 26 26 25 25 24 24 24 25 26 26 27 28 27 27 27 26 26 26 26
16 16 17 18 19 20 20 19 19 19 20 20 19 18 18 19 19 19 19 19 19 19 20 21 21 23 24 25 25 25 25 24 24 23 23 22 23 24 25 25 26 26 25 25 25 25 25 24 24
17 17 17 18 19 20 20 20 20 20 19 18 17 18 18 19 19 19 19 18 18 19 20 21 22 22 23 24 24 23 23 23 22 22 22 22 23 23 24 24 24 24 24 23 23 23 23 23 23
16 17 17 18 19 20 20 21 20 21 20 19 19 19 19 19 19 19 19 18 18 18 19 20 21 22 22 22 23 22 22 21 21 21 21 22 22 22 22 22 23 23 23 23 22 22 22 22 22

GEFSSGP_500_meanwind_174.txt.gz
Wind_Speed
11 10 9 7 6 4 2 2 7 9 9 10 9 8 7 8 8 8 9 10 9 9 9 9 9 10 11 11 12 12 12 12 12 13 13 13 12 12 12 12 12 12 12 12 11 11 11 11 11
12 11 10 8 6 4 2 6 11 11 12 11 10 9 9 9 9 9 10 10 10 10 11 11 11 12 12 13 13 13 13 14 14 14 14 14 14 14 14 13 13 13 13 13 12 12 12 12 12
13 12 10 9 7 5 6 8 12 13 13 13 11 10 11 10 11 10 11 12 11 11 12 12 12 13 13 14 14 14 15 15 16 16 16 15 15 16 15 15 15 14 14 14 14 14 14 14 14
14 12 10 8 6 7 10 11 11 13 14 14 13 12 12 11 11 12 12 13 13 13 13 13 14 14 14 15 15 16 17 17 17 17 17 17 17 17 17 16 16 16 16 16 15 15 15 15 15
13 11 9 8 7 9 12 14 11 13 15 15 15 15 13 13 13 14 14 14 15 15 15 15 15 15 15 16 16 17 18 18 18 18 18 18 18 19 19 18 18 18 18 18 17 17 17 17 16
11 10 9 8 9 13 15 17 13 14 16 16 16 17 16 15 15 15 15 15 16 16 16 16 16 16 17 17 18 19 19 18 19 19 19 20 20 20 21 20 20 19 19 19 19 18 18 18 18
10 10 8 7 10 13 16 17 15 15 15 16 16 17 17 16 16 17 17 17 18 18 17 17 18 18 18 19 20 20 21 20 20 20 21 21 20 21 21 21 21 21 20 20 20 20 20 20 20
9 9 7 8 12 14 17 19 18 17 17 17 16 16 17 17 17 18 19 19 19 19 19 19 19 20 20 21 21 22 22 22 22 22 22 22 22 22 22 22 22 22 21 21 21 21 21 21 21
10 9 8 9 11 15 16 18 19 18 17 19 19 18 18 18 19 19 20 21 20 20 20 20 21 21 22 22 23 23 23 23 24 24 24 23 23 22 23 23 23 23 23 22 23 22 22 22 21
11 10 9 11 14 16 16 17 17 17 17 18 19 20 20 20 20 20 20 21 21 21 21 21 21 22 23 23 24 24 24 25 25 25 25 25 24 24 24 24 25 24 24 23 23 23 23 23 22
10 11 13 13 16 17 15 15 16 16 18 18 19 20 21 20 20 20 20 21 21 22 22 22 22 23 24 25 26 26 27 27 26 27 27 26 25 25 26 26 26 26 25 24 24 24 24 24 23
12 12 13 13 15 17 16 15 16 17 18 18 19 20 21 21 21 20 21 22 22 23 24 23 23 24 25 26 26 27 27 28 28 27 28 28 27 28 28 27 27 27 25 25 25 24 24 24 24
11 13 12 14 15 16 16 17 16 17 18 18 19 20 21 20 21 22 23 23 23 23 23 23 23 24 26 27 27 28 29 29 29 28 28 28 28 28 27 27 27 27 27 26 26 26 25 25 25
10 12 13 14 15 17 17 17 18 18 18 19 20 21 21 21 21 22 23 24 24 24 25 25 26 26 26 27 28 28 28 28 28 28 28 28 28 28 27 27 27 28 27 27 28 27 26 26 26
7 8 10 13 16 17 17 18 17 18 19 20 21 21 21 22 22 22 22 24 25 26 26 26 27 27 27 27 28 28 28 28 28 28 28 28 29 29 29 29 29 29 29 29 29 28 27 27 27
5 7 10 12 16 17 17 18 17 19 18 20 21 21 22 22 22 23 24 25 26 26 26 27 27 27 27 28 29 28 28 29 28 28 28 29 30 31 31 30 30 30 30 30 30 29 29 28 27
6 10 11 11 14 16 17 18 17 17 19 20 22 22 22 23 23 24 25 26 26 27 27 27 27 27 28 28 29 28 28 29 29 29 29 31 31 31 31 30 31 30 30 30 30 29 29 28 28
8 9 11 13 14 16 17 18 18 18 19 21 22 22 23 24 24 25 26 26 27 27 27 26 27 27 28 28 28 28 28 29 29 29 30 31 31 31 30 29 30 30 30 29 29 29 29 29 28
10 12 13 14 16 17 17 17 16 17 18 21 21 22 23 23 23 23 25 25 26 26 26 27 27 27 28 28 29 29 29 29 29 29 29 30 30 30 30 30 30 30 29 29 29 29 29 28 29
12 13 14 16 16 17 17 17 17 19 20 21 22 22 23 22 23 24 25 25 26 26 26 27 27 28 29 29 29 30 29 29 29 29 29 30 30 30 30 30 30 30 29 29 28 28 29 28 29
12 12 13 16 16 15 16 19 18 18 20 22 21 22 23 25 24 25 26 25 25 25 25 26 27 28 27 28 28 29 29 29 30 29 29 29 29 30 30 30 30 30 29 29 29 29 29 29 30
12 13 15 17 17 16 16 18 18 18 19 21 21 23 23 24 24 25 26 25 25 24 24 26 27 27 26 27 27 28 28 29 29 29 28 28 29 30 30 30 30 30 30 29 29 29 30 30 30
14 15 15 15 16 16 16 18 19 20 20 22 22 24 24 26 26 25 25 25 24 23 24 25 25 26 26 27 27 27 28 28 28 28 28 29 30 30 30 30 29 29 30 29 29 29 29 29 29
15 15 14 14 15 15 17 18 20 21 20 23 24 25 26 26 26 24 24 25 24 24 24 24 24 25 25 25 26 26 28 27 26 27 28 28 29 29 29 29 28 28 29 29 28 28 28 29 29
16 15 15 15 14 14 16 19 19 20 20 22 24 26 26 25 25 24 25 24 25 25 24 24 24 24 24 24 25 26 26 25 25 27 27 28 28 29 28 28 28 28 28 29 28 28 28 29 29
13 14 15 17 16 15 16 18 16 17 19 21 24 25 26 25 24 25 26 25 25 25 24 23 23 24 24 24 24 24 25 26 26 27 27 27 28 28 28 28 27 27 27 27 27 27 28 29 29
15 14 15 18 17 17 16 18 16 16 19 22 24 25 26 26 25 25 25 25 25 25 24 24 24 24 24 24 24 24 25 26 27 27 27 28 28 28 28 27 26 26 26 26 25 25 26 26 27
14 13 15 15 18 19 17 17 18 20 22 24 24 25 26 26 26 25 25 25 25 24 23 23 23 23 22 23 24 24 24 25 26 26 27 27 27 27 27 26 25 25 25 24 25 25 25 25 26
14 14 16 17 17 19 20 19 19 20 22 23 23 24 25 26 25 25 24 24 24 23 22 22 22 22 23 23 23 24 25 25 25 25 26 26 26 26 26 24 24 24 23 24 24 25 26 26 26
14 16 17 18 19 19 20 20 19 21 23 23 24 25 26 26 25 24 23 23 23 22 22 21 21 22 22 23 23 24 24 24 24 24 24 24 25 25 24 24 24 24 23 24 25 26 26 25 26

GEFSSGP_500_meanwind_180.txt.gz
Wind_Speed
11 10 10 9 7 5 4 2 1 2 4 6 6 7 6 7 8 9 9 8 7 8 8 8 8 8 9 9 10 10 10 11 11 11 12 13 14 14 14 14 15 15 15 15 16 15 15 15 15
13 12 11 9 8 6 3 2 4 5 5 6 8 8 8 8 8 9 9 9 9 9 9 9 10 10 10 10 11 11 11 12 13 13 13 14 14 14 15 15 15 16 16 16 16 16 16 16 16
13 13 12 10 9 6 4 4 6 7 6 8 9 9 9 9 9 9 9 9 10 9 10 10 10 11 11 11 12 13 13 13 14 15 15 15 15 15 15 16 16 17 17 17 17 17 17 17 17
13 13 12 11 9 7 5 5 6 7 8 10 11 11 11 11 12 11 11 11 11 11 11 12 12 12 12 12 13 14 14 15 15 16 16 16 16 16 16 17 17 17 18 18 18 19 18 18 18
13 12 12 11 9 8 6 7 8 8 10 12 13 14 14 14 14 14 13 12 13 12 12 13 13 13 13 14 14 15 16 16 17 17 17 18 18 18 18 18 18 18 18 18 19 20 19 19 19
12 13 13 12 10 9 7 8 10 10 11 13 14 14 14 15 15 14 14 14 14 13 14 14 15 15 15 15 16 16 17 18 18 19 19 19 19 19 19 19 19 19 19 19 20 20 20 20 20
11 12 13 11 10 9 9 9 10 11 13 15 17 16 16 16 16 16 16 15 15 16 15 15 16 17 17 17 17 18 18 18 19 19 19 20 20 20 20 20 20 21 21 21 21 21 21 21 20
11 11 11 12 11 9 9 10 11 13 15 17 17 17 18 18 18 17 16 16 17 18 17 17 17 18 18 18 19 19 20 20 20 20 20 21 21 21 21 21 22 22 22 22 22 23 22 22 22
11 11 11 11 11 9 10 11 13 15 17 18 19 19 19 19 18 18 18 18 18 18 17 18 18 19 20 20 20 20 20 20 20 21 21 22 23 23 22 22 22 22 22 23 23 23 23 23 22
12 12 11 11 11 11 11 13 14 15 17 19 19 18 19 19 19 19 19 18 18 19 19 20 20 20 21 21 21 21 21 21 21 22 22 23 23 24 23 23 23 24 24 23 23 23 24 23 23
12 11 11 11 10 11 11 13 14 16 18 19 20 18 18 18 18 19 20 19 19 19 20 21 21 21 21 22 22 23 23 22 22 23 23 23 24 24 24 24 24 23 23 23 24 24 24 24 24
12 11 10 10 10 11 12 13 14 16 18 20 19 18 18 17 18 20 21 21 20 20 21 22 22 23 24 24 24 25 24 25 25 24 23 23 24 25 25 25 24 24 24 24 24 25 25 25 24
10 10 9 9 11 12 13 13 14 16 18 19 18 18 18 19 20 20 21 21 21 21 23 24 24 24 25 26 26 26 26 26 25 24 24 24 24 24 25 25 24 24 24 24 24 25 26 26 25
10 9 9 9 11 12 14 14 16 17 17 18 18 18 20 22 22 21 21 22 21 22 23 25 26 26 26 27 27 27 27 26 26 26 25 26 25 25 25 25 24 24 25 25 25 26 26 26 26
10 10 10 9 10 11 14 15 16 16 17 18 19 20 21 22 22 23 23 22 22 23 24 26 27 27 27 27 27 28 28 27 27 27 27 27 26 26 25 25 24 24 24 25 25 25 26 26 26
11 10 11 10 12 12 14 16 16 17 16 18 20 19 20 21 22 23 24 22 22 23 24 25 26 27 27 27 27 28 29 29 28 28 28 27 27 26 25 25 25 25 25 25 25 25 26 26 26
10 10 12 12 14 14 15 17 17 18 19 19 20 20 20 20 22 23 24 24 23 24 24 26 27 28 27 26 26 28 28 28 29 28 27 27 26 25 24 25 25 25 25 26 26 26 26 26 27
9 10 10 11 13 15 16 18 18 19 20 21 21 21 20 20 21 23 24 25 25 25 25 27 27 27 27 28 27 28 28 28 28 28 27 27 26 24 24 25 25 26 26 27 26 26 27 26 26
9 10 11 12 14 16 17 17 19 19 19 20 21 21 21 21 22 23 24 26 26 26 27 27 27 27 29 28 28 28 28 28 28 27 27 26 26 25 25 25 25 26 27 27 27 27 27 26 26
11 12 12 12 13 16 17 17 19 20 19 19 19 20 20 20 21 22 22 24 25 27 27 27 27 27 27 28 28 28 28 27 26 26 25 25 25 25 24 25 25 26 26 27 27 27 27 27 27
11 13 13 13 13 15 17 17 17 18 18 18 18 19 20 20 21 22 23 25 25 26 27 27 25 26 26 27 26 27 26 25 24 24 25 25 25 24 24 25 25 26 27 27 26 26 26 26 26
11 13 14 15 14 15 16 17 17 19 19 19 19 20 21 21 22 24 25 25 27 27 26 25 24 24 25 26 25 25 24 24 24 25 26 26 25 25 25 24 25 25 26 25 25 25 26 25 25
12 13 14 14 15 16 17 18 19 19 20 20 20 20 21 22 23 25 25 25 26 26 25 24 24 23 24 24 24 24 23 23 24 24 25 24 24 24 24 24 24 25 25 25 24 24 25 24 25
14 15 16 16 16 15 16 17 18 18 20 20 20 21 21 21 23 23 24 25 25 26 26 26 25 24 23 23 23 22 21 22 22 22 23 23 23 23 24 24 24 24 24 24 24 24 24 24 25
15 15 16 16 15 15 15 17 17 17 18 19 19 20 21 22 23 22 23 24 24 24 24 25 24 24 23 23 22 21 21 21 21 21 22 22 22 22 22 23 23 23 24 24 24 24 23 24 25
14 16 16 17 16 15 15 17 17 17 18 18 18 20 21 21 22 24 24 23 22 22 23 23 24 24 23 22 22 22 21 21 22 21 21 22 22 23 22 22 22 22 23 23 24 23 23 23 24
15 15 16 16 15 16 16 16 17 17 18 19 19 20 21 22 23 23 22 22 22 23 23 23 24 24 23 23 23 23 21 21 21 22 22 22 22 22 21 22 22 22 23 23 23 23 23 24 24
14 16 17 17 17 18 18 18 19 18 18 19 19 19 20 22 23 23 23 23 23 23 24 24 24 23 23 23 24 23 21 22 22 21 20 20 21 21 21 21 22 22 22 22 22 23 23 24 25
14 15 17 18 19 19 20 20 20 19 20 20 21 21 20 21 21 22 23 25 25 24 24 24 24 23 22 22 23 21 21 20 20 19 19 19 20 20 20 21 21 21 21 21 22 22 23 24 24
15 16 17 19 19 19 21 22 21 20 21 22 22 22 23 22 22 23 23 23 24 24 25 24 23 22 22 22 21 20 20 19 19 18 19 20 20 20 20 20 20 20 21 21 22 23 23 23 24

GEFSSGP_500_meanwind_186.txt.gz
Wind_Speed
9 9 9 8 7 5 4 2 2 1 3 5 6 6 6 5 6 7 7 7 7 8 9 9 9 9 10 10 10 10 10 10 11 11 11 12 12 13 13 13 13 13 13 13 13 14 14 14 14
10 10 10 10 9 6 4 2 2 1 3 5 6 6 6 7 7 7 8 8 9 9 10 10 10 10 10 10 11 11 11 11 12 12 13 13 14 14 15 15 15 14 15 15 15 15 15 15 15
11 11 10 10 9 7 5 4 3 2 3 5 6 6 7 8 9 9 9 9 10 11 11 11 11 11 11 11 11 12 12 13 13 14 14 15 15 16 16 16 16 16 16 16 17 17 16 16 16
12 11 11 10 9 7 5 5 5 4 5 6 7 8 9 10 10 10 10 11 11 12 12 12 12 13 13 13 13 13 14 15 15 15 15 16 16 17 17 17 18 18 18 18 18 18 18 18 18
12 12 11 10 9 7 6 6 7 7 6 7 8 10 10 10 10 11 12 12 13 12 12 13 13 13 14 14 14 15 16 17 17 17 17 17 18 18 18 19 19 19 19 19 19 19 19 19 20
13 13 12 11 10 9 8 8 8 8 8 9 10 11 11 11 12 13 13 14 14 14 14 14 14 14 14 15 15 16 17 17 18 18 19 19 19 19 20 20 20 20 20 20 20 21 22 22 22
12 12 12 11 11 10 10 9 9 9 10 10 10 10 12 12 13 14 14 15 16 15 15 15 16 16 16 16 17 17 17 18 18 19 20 20 20 21 21 21 22 22 22 22 22 22 24 24 24
11 12 12 11 11 10 11 10 10 11 10 11 11 10 11 12 13 14 15 15 16 16 16 16 17 17 17 18 18 18 19 19 20 20 21 22 22 22 22 22 23 23 24 23 24 24 25 26 26
12 12 12 11 11 11 12 12 12 11 11 10 11 11 12 13 14 14 15 16 16 16 17 18 19 19 20 19 19 20 20 21 22 22 22 22 23 24 24 24 24 24 24 24 25 25 25 25 26
11 12 12 11 12 12 13 14 13 12 11 11 11 12 13 13 14 15 16 17 17 18 18 19 20 21 21 22 21 21 22 22 23 23 23 23 24 25 24 25 25 25 25 26 26 26 26 26 26
11 11 10 11 12 13 14 14 13 12 12 12 13 13 13 14 15 16 17 17 18 19 20 21 21 22 23 23 23 23 24 23 24 24 24 25 24 24 25 25 25 25 25 26 25 26 26 25 25
9 10 11 11 12 13 13 13 13 13 13 14 15 16 16 16 16 17 18 18 19 20 21 22 22 23 24 24 24 24 25 25 25 25 25 25 25 25 25 25 26 25 25 26 25 25 26 26 25
9 10 10 11 12 13 13 14 15 15 16 17 17 18 17 18 18 19 19 19 20 21 22 22 23 24 25 24 24 25 25 25 26 26 27 27 26 27 27 27 27 26 26 26 26 25 25 26 26
10 10 11 13 14 13 14 15 16 16 18 19 19 19 21 20 20 21 21 21 21 21 22 23 24 24 25 24 24 25 25 26 27 27 28 28 27 27 27 27 27 27 27 27 27 26 26 26 26
11 11 12 14 14 15 16 16 17 19 20 20 20 20 21 21 21 22 23 24 23 23 23 24 25 25 25 25 26 26 26 27 27 28 28 29 28 28 28 27 28 28 28 27 27 27 27 27 27
11 12 13 14 15 16 17 17 18 19 19 20 20 21 21 22 23 23 23 24 23 22 23 24 25 24 25 26 25 25 24 26 27 27 28 29 29 28 28 28 28 28 27 27 27 27 27 27 26
13 13 14 15 15 16 18 19 19 20 20 20 21 21 22 23 24 25 24 22 21 22 24 25 25 25 26 25 25 25 25 26 26 27 28 28 29 28 28 28 28 28 28 28 28 27 27 27 27
13 14 14 15 15 16 18 18 20 20 20 21 22 22 23 24 25 25 24 22 22 23 25 25 25 25 25 26 26 27 28 29 27 27 28 28 27 27 27 27 28 28 28 28 28 28 27 27 28
13 13 14 15 15 16 16 18 19 20 20 21 22 23 24 24 25 24 22 23 24 25 25 25 26 26 27 28 28 27 29 29 27 26 26 25 25 25 26 26 26 27 28 28 27 28 28 29 29
13 13 14 14 16 18 17 17 18 20 21 22 22 22 23 24 24 22 21 22 24 24 25 26 26 28 29 29 28 28 28 29 26 23 23 23 24 24 25 25 27 27 27 27 28 28 28 28 29
13 14 15 15 17 19 20 19 20 20 21 22 22 23 22 22 23 22 21 22 23 24 25 25 27 27 28 28 28 27 27 26 25 23 23 23 24 24 23 25 26 26 26 26 27 27 27 28 28
14 14 15 16 17 19 20 21 20 20 20 21 22 22 22 22 22 23 23 23 24 25 26 27 27 27 27 27 28 28 26 25 25 23 23 23 23 24 24 25 25 26 26 26 25 26 26 27 27
13 14 15 17 18 19 20 21 20 20 20 20 21 21 22 23 24 23 23 23 24 26 27 27 27 27 27 27 27 26 25 25 25 24 23 22 22 23 24 24 24 25 25 25 24 25 26 26 26
14 16 16 17 18 19 19 20 20 21 21 20 20 20 21 22 22 22 23 24 25 26 27 27 28 27 26 26 26 25 25 24 24 23 22 21 21 22 23 23 23 24 24 24 24 24 25 25 25
15 16 18 18 17 17 18 20 20 20 20 19 20 21 21 21 22 23 24 24 24 25 26 26 26 26 26 25 25 24 25 24 23 22 21 21 20 20 20 21 22 23 23 23 23 24 24 25 25
15 16 17 18 18 17 17 19 19 19 18 20 20 20 21 22 23 24 25 24 24 24 24 25 26 25 24 24 24 24 22 21 21 21 21 20 19 19 20 20 21 23 23 23 23 23 24 25 25
16 16 16 18 18 18 18 18 17 18 19 20 21 21 22 22 22 23 24 24 24 24 25 25 24 23 23 23 23 22 20 20 19 20 21 21 20 20 20 21 22 23 23 23 23 24 25 25 25
15 16 16 17 18 19 18 18 18 18 19 20 20 20 21 21 22 23 23 24 23 24 25 24 23 23 22 22 21 21 20 19 19 20 20 21 21 20 21 21 21 22 22 23 23 24 25 25 25
15 15 16 17 18 20 20 18 18 19 19 19 20 21 21 22 22 23 24 23 23 23 24 23 22 21 21 20 19 19 18 17 18 18 19 19 19 19 19 20 20 21 22 22 23 24 24 25 25
15 17 18 18 18 19 20 19 19 19 19 19 20 21 22 23 24 23 23 22 21 22 22 21 20 19 18 18 17 17 17 18 17 17 18 17 17 18 19 20 21 22 23 23 23 23 24 24 24

GEFSSGP_500_meanwind_192.txt.gz
Wind_Speed
6 6 6 6 5 5 5 5 5 5 4 3 2 2 2 3 3 4 4 4 5 5 5 5 5 6 7 8 8 9 9 9 9 9 10 10 10 10 10 10 10 11 11 11 12 12 12 12 12
6 6 6 7 7 7 7 7 6 5 4 4 3 2 3 4 4 5 5 6 7 7 7 6 6 7 8 9 9 10 11 10 10 10 11 11 12 12 12 12 12 12 12 13 13 14 14 14 14
8 7 7 7 7 8 7 7 7 5 4 3 3 3 4 5 6 6 7 8 8 8 8 8 8 8 9 9 10 11 12 12 12 12 12 12 13 13 13 13 13 13 14 14 14 15 15 15 15
9 7 7 7 8 9 7 6 6 5 5 5 5 5 6 6 6 7 8 9 10 9 10 10 10 10 10 11 12 13 13 13 13 13 14 14 14 14 14 15 15 15 15 15 16 16 17 17 17
8 8 6 7 8 9 8 6 6 7 6 6 7 8 8 7 8 8 9 10 11 11 11 11 11 11 12 12 13 14 14 14 15 15 16 16 16 16 16 16 17 17 17 17 18 18 19 18 18
8 8 8 8 8 9 8 8 6 7 6 7 7 8 9 9 9 10 10 11 11 11 12 12 12 13 13 14 15 15 15 15 16 17 17 17 18 18 18 18 18 19 19 20 20 20 20 19 19
8 8 9 9 9 9 9 9 9 8 8 9 9 9 10 10 10 11 12 12 12 12 13 13 14 14 15 16 16 17 17 17 18 18 19 18 19 19 19 20 20 20 21 20 20 20 20 20 20
8 8 9 9 10 11 11 11 11 10 9 10 10 10 11 10 10 11 12 12 12 13 14 15 15 16 17 17 17 18 19 19 19 19 19 20 20 20 21 21 21 22 22 21 22 22 22 22 22
7 8 9 10 10 11 11 11 12 11 11 11 11 11 11 11 11 11 12 13 14 15 16 16 16 17 17 17 18 20 20 20 20 21 20 21 21 22 22 22 22 23 23 23 23 23 23 22 22
6 7 9 9 10 11 12 11 12 12 12 12 12 12 12 12 12 14 13 14 15 17 18 18 18 19 19 19 20 20 21 21 22 22 22 22 23 23 24 24 24 24 24 24 24 24 24 24 24
5 6 7 8 10 11 11 12 12 13 12 12 13 13 14 14 15 15 14 15 16 18 19 20 21 21 21 21 22 22 22 23 23 23 24 25 25 25 25 25 25 25 25 25 25 25 25 25 25
5 6 7 9 10 11 12 12 13 13 13 14 14 14 15 16 16 17 17 18 18 20 21 22 22 23 23 24 23 23 23 24 24 24 25 25 26 26 26 26 26 26 26 26 25 25 25 25 25
6 7 7 9 10 11 12 13 14 14 15 15 16 16 17 17 18 19 19 20 21 21 21 23 23 24 25 25 25 24 25 24 25 25 25 26 26 27 27 27 27 27 27 27 26 26 26 25 25
6 7 8 9 10 11 13 14 15 15 16 17 18 18 19 20 20 20 21 21 21 22 22 24 24 24 25 26 26 26 25 25 25 26 26 27 27 27 27 28 28 28 28 28 28 27 27 26 26
6 7 8 10 11 12 13 14 15 16 16 17 18 19 20 21 22 21 21 21 22 23 24 25 25 26 26 27 26 27 26 26 26 26 28 27 28 28 29 28 28 28 28 28 28 27 27 26 26
7 7 8 11 12 13 13 14 16 16 17 18 19 20 21 21 22 22 22 22 23 24 25 25 26 27 27 27 27 27 27 27 27 28 27 27 27 28 28 28 28 28 28 28 28 27 27 27 26
7 8 9 11 12 13 13 15 16 17 18 18 19 20 21 21 22 24 24 23 24 25 26 26 27 27 27 27 27 27 28 27 26 26 27 27 27 27 27 28 28 28 27 28 29 28 27 28 28
9 10 11 12 13 14 14 15 17 17 17 18 19 20 21 23 24 25 26 25 25 25 25 26 26 26 27 28 28 28 28 27 26 26 27 27 27 26 26 26 27 28 27 27 28 27 27 27 28
9 10 12 14 14 14 15 16 17 17 18 19 20 21 23 23 24 25 26 27 26 25 25 25 25 26 27 27 27 27 27 27 27 27 27 28 27 25 26 25 25 25 25 25 25 25 26 26 27
10 11 13 14 14 15 16 17 18 18 19 21 22 23 24 25 26 26 27 27 27 26 25 25 26 27 27 27 27 26 26 26 27 27 27 26 24 24 24 22 23 24 23 24 24 25 25 26 27
10 11 12 14 14 15 16 17 18 19 20 21 22 23 24 24 25 27 26 26 26 25 25 25 26 26 27 27 26 26 26 26 26 26 25 24 23 22 22 22 22 23 23 23 23 24 25 25 26
11 12 13 13 13 15 16 17 20 19 21 22 23 23 23 24 25 26 26 25 24 24 25 25 26 26 26 26 26 26 25 25 25 25 24 23 23 23 23 23 23 24 24 23 23 24 24 24 25
11 12 12 13 13 14 16 17 19 19 21 22 22 22 23 23 24 24 24 23 23 24 25 25 26 26 26 25 25 25 25 25 25 24 23 23 23 23 23 22 23 24 23 23 24 24 24 24 25
12 12 13 12 12 14 15 15 18 19 20 20 21 21 22 24 24 23 23 23 23 24 25 25 25 25 25 25 24 25 25 25 24 24 24 24 24 23 23 23 23 24 23 24 24 24 24 25 25
12 11 12 12 12 13 16 16 17 19 20 20 20 21 21 22 22 21 22 22 23 24 24 24 24 23 23 23 24 24 24 24 24 24 24 23 23 23 23 23 23 23 22 23 24 24 24 24 25
12 11 12 12 12 14 16 16 18 20 20 20 21 21 22 22 21 21 22 23 24 24 23 22 22 22 22 23 23 23 23 23 23 23 22 22 21 22 21 21 22 22 21 22 22 23 23 23 24
13 12 11 12 13 14 15 17 17 18 19 19 20 21 21 21 21 21 22 22 22 22 21 20 20 20 21 21 21 21 21 21 21 21 20 20 20 20 19 20 20 20 20 20 21 21 22 23 24
12 11 11 12 14 15 16 17 17 18 19 19 20 19 20 20 20 20 20 20 20 20 19 19 18 19 20 19 19 19 19 19 19 19 19 19 18 18 18 18 19 19 19 20 20 20 22 24 24
13 11 12 13 14 15 15 17 18 18 19 19 19 20 20 20 19 19 20 19 19 19 19 19 18 19 18 18 17 17 16 16 17 17 17 16 16 17 17 17 18 18 19 20 20 21 22 23 23
12 12 12 14 15 15 15 18 19 19 19 19 19 19 18 18 19 19 18 18 18 18 19 19 18 18 17 16 16 16 16 16 15 16 16 16 16 16 16 16 17 18 19 20 20 20 21 22 22

GEFSSGP_500_meanwind_198.txt.gz
Wind_Speed
5 4 4 3 2 1 2 3 6 8 9 9 8 8 8 9 10 9 10 9 9 9 10 10 10 11 10 9 10 10 10 11 12 12 12 12 13 13 13 13 13 13 12 12 13 13 13 13 13
5 5 5 3 1 2 3 4 7 10 9 9 9 9 10 9 10 11 10 10 10 10 11 11 11 11 10 10 11 11 12 12 13 14 14 15 14 14 14 15 15 14 14 14 14 14 14 14 14
5 5 4 3 3 4 4 7 9 11 10 9 10 9 11 10 10 11 11 11 11 10 11 12 12 12 11 12 12 13 14 14 15 16 16 16 16 16 16 17 16 16 16 16 16 16 16 16 15
6 4 3 2 6 6 7 9 7 10 10 10 10 10 11 12 11 11 11 11 11 10 12 13 13 13 13 13 14 15 15 16 16 17 17 17 17 18 18 18 18 18 17 17 17 18 18 17 17
7 4 2 6 7 6 9 11 7 9 9 12 11 10 12 12 11 12 12 12 13 12 13 14 14 14 14 15 16 16 17 17 17 18 18 18 18 18 19 19 19 19 19 19 19 19 20 19 19
7 5 3 9 7 6 10 10 10 8 10 12 12 11 11 12 12 12 13 13 14 14 15 16 16 16 17 17 18 18 18 19 19 19 19 19 19 19 19 19 20 20 20 20 20 20 21 21 20
7 5 5 7 8 8 10 10 12 10 11 13 13 13 13 13 14 14 14 15 16 16 17 17 17 18 18 19 20 20 20 20 21 21 21 21 21 20 19 20 20 20 20 21 21 21 22 22 21
5 5 3 7 9 10 10 11 12 13 13 14 14 14 14 14 14 14 15 17 17 17 18 18 19 19 19 20 22 21 22 21 21 21 21 22 21 21 21 21 21 22 22 22 23 23 23 23 22
4 4 4 8 10 10 10 12 12 13 14 14 14 15 15 15 15 15 16 17 18 18 18 20 19 20 21 21 21 22 22 22 22 21 22 22 23 22 22 23 23 23 23 24 24 24 24 23 22
2 3 7 10 11 11 11 13 12 12 12 14 14 15 16 16 17 17 17 17 18 19 19 20 22 22 21 22 21 22 22 23 23 23 23 23 23 24 24 24 24 24 24 24 25 25 25 23 22
4 6 9 10 11 10 10 12 12 12 12 14 15 15 17 17 17 17 18 19 20 21 21 22 23 23 23 23 23 23 23 23 23 23 25 25 24 24 24 24 25 25 24 23 24 24 24 24 24
5 8 9 10 10 10 10 11 12 13 14 16 17 16 18 19 18 17 18 20 21 21 23 24 24 24 24 24 24 24 24 24 24 24 25 26 25 25 25 25 25 26 26 25 24 24 24 24 24
5 8 8 9 10 10 10 11 12 13 14 16 18 18 17 17 18 19 20 21 22 23 24 24 24 24 24 24 25 24 25 25 26 26 26 26 26 26 26 25 26 26 27 28 27 25 25 24 24
5 6 7 8 11 12 12 13 13 13 14 16 17 17 18 18 19 20 22 22 22 24 25 24 24 24 24 24 25 25 25 26 26 27 27 27 27 26 26 26 26 27 27 28 28 27 25 25 25
3 6 6 9 11 13 13 14 15 13 15 17 18 18 19 19 20 20 21 23 24 25 24 25 25 24 25 25 26 26 26 26 27 28 28 28 27 27 26 26 26 27 28 28 27 26 27 26 26
5 8 9 9 12 13 15 16 16 15 16 18 19 18 18 20 21 21 22 23 25 25 26 26 25 26 26 26 26 27 27 27 27 28 28 28 27 27 27 26 26 26 26 26 25 25 26 27 27
7 9 9 12 12 12 15 16 17 17 17 19 20 20 20 22 22 22 23 23 24 25 26 26 27 27 26 26 27 27 27 27 27 28 27 28 27 27 26 25 24 25 24 24 24 24 24 25 25
9 8 9 12 13 14 15 17 18 19 19 20 21 22 22 23 23 23 24 25 25 26 26 27 28 28 27 26 27 27 27 27 27 28 27 27 26 26 25 25 25 25 25 24 24 24 24 24 24
11 9 11 13 14 14 16 17 18 19 20 20 21 22 22 23 23 24 25 26 26 26 27 26 27 27 27 27 28 27 27 27 27 27 26 25 25 24 25 25 25 25 25 24 24 24 24 24 24
10 10 12 13 14 14 16 18 19 19 20 21 21 22 23 23 24 25 25 26 26 26 27 26 26 27 27 28 28 28 27 28 27 27 26 25 25 25 25 25 25 25 24 23 23 23 24 24 24
11 11 12 14 15 16 16 19 20 20 20 22 22 23 25 25 26 26 26 26 26 26 27 26 26 27 28 28 27 27 27 26 26 25 24 23 23 23 23 24 23 23 23 23 23 23 24 24 24
12 12 13 14 15 14 14 17 19 21 23 22 24 26 27 27 28 28 27 27 28 27 27 27 27 27 26 26 26 27 26 25 24 23 23 22 22 23 23 23 23 22 22 23 23 24 24 24 24
11 12 13 12 12 12 13 16 20 22 23 25 27 27 26 28 28 28 28 28 28 28 27 27 27 26 25 25 26 26 25 24 24 23 22 22 22 22 22 22 22 22 23 23 24 25 25 25 25
12 12 12 10 10 12 13 17 20 22 23 25 25 26 26 26 27 28 28 28 27 26 26 26 24 24 24 25 25 25 23 23 23 22 22 22 22 22 22 22 23 23 23 24 24 24 24 25 25
12 13 12 10 11 12 13 16 18 20 23 24 25 26 26 27 27 27 26 25 25 25 25 24 24 24 24 24 24 24 22 22 22 21 21 21 21 22 22 22 22 23 23 23 23 24 25 26 26
12 12 13 12 12 12 13 15 19 21 22 23 24 25 25 24 25 25 24 24 23 23 23 23 23 24 24 24 23 22 21 20 20 20 20 20 20 21 21 21 21 22 23 22 23 24 25 26 26
13 13 13 13 11 11 13 16 19 19 20 22 23 23 23 23 23 23 23 22 22 22 22 22 22 23 23 23 21 20 20 19 19 19 20 20 19 19 20 21 21 22 22 22 22 23 24 25 25
13 13 13 12 13 13 14 16 18 19 19 21 22 22 23 22 22 22 21 21 21 21 21 22 22 21 21 20 19 19 19 18 19 18 18 18 18 19 19 20 21 21 21 21 21 22 23 24 24
13 14 14 12 12 14 15 16 18 19 21 21 22 22 23 22 21 21 21 21 21 21 21 21 21 21 20 19 18 17 16 16 17 17 17 17 17 17 18 19 20 20 20 20 21 22 22 22 22
14 14 15 14 12 12 15 17 19 20 20 21 21 22 22 21 21 20 20 21 20 21 20 20 20 20 19 17 16 15 15 15 16 16 15 16 16 16 17 19 19 19 19 20 20 20 21 21 22

GEFSSGP_500_meanwind_204.txt.gz
Wind_Speed
6 6 5 6 5 4 2 3 4 5 5 7 8 10 10 10 8 9 9 9 8 9 9 9 8 9 9 9 10 10 11 11 12 12 13 14 14 15 15 15 15 15 15 15 14 14 15 15 15
6 6 5 5 4 3 2 4 5 6 6 7 9 10 11 10 10 9 10 10 9 9 9 8 9 9 10 11 11 11 12 13 13 13 14 15 15 15 16 16 16 16 16 15 16 16 16 16 16
7 6 6 6 3 3 3 5 8 8 8 8 8 9 11 11 11 10 10 10 10 10 10 10 9 10 10 12 12 13 13 14 14 15 15 16 16 17 17 17 17 18 17 17 17 17 17 17 17
7 6 6 6 4 3 5 6 9 9 9 9 10 10 10 10 10 11 11 11 11 11 11 11 10 11 12 13 14 14 14 15 15 15 16 17 17 17 18 19 19 19 19 19 19 19 18 18 18
7 7 6 5 4 5 6 7 8 9 9 8 9 9 10 11 11 11 12 12 13 13 12 12 11 12 13 13 13 13 14 15 15 16 16 17 17 18 19 20 20 20 20 20 20 20 20 20 19
8 8 6 4 3 5 7 8 8 9 9 9 11 11 11 11 12 12 12 12 13 12 12 11 12 13 13 14 14 14 15 14 15 16 16 17 17 18 19 20 21 21 21 21 21 21 21 21 21
8 8 6 5 4 5 6 6 7 8 9 11 11 11 12 11 12 13 13 13 13 12 12 13 13 14 15 14 15 16 15 15 16 17 17 18 18 19 20 21 21 22 22 22 21 22 22 22 23
9 8 6 5 5 6 7 6 8 11 12 12 11 11 12 12 12 13 14 15 14 13 14 14 15 16 16 15 16 17 17 17 18 17 18 19 20 20 21 21 22 23 23 22 21 21 22 22 23
8 7 6 5 6 6 7 8 9 11 13 13 13 13 13 14 13 13 14 15 15 14 15 16 16 17 17 17 18 19 19 18 18 19 20 20 21 21 21 21 21 22 22 22 22 22 22 23 23
8 7 6 4 6 7 8 9 10 11 13 13 13 13 13 14 14 15 16 16 16 17 17 18 19 18 18 18 19 19 19 19 19 20 20 20 21 21 21 22 22 23 23 23 24 23 23 23 23
8 6 4 4 6 8 8 9 10 11 13 12 12 13 15 15 16 17 17 17 18 19 19 20 21 19 18 19 19 20 20 20 19 20 21 21 21 22 22 22 23 24 24 24 24 24 24 24 24
6 5 4 5 6 7 8 8 10 11 11 12 12 14 15 16 17 19 19 18 19 19 20 21 22 21 21 20 20 20 20 20 20 21 21 21 21 22 22 22 23 23 23 23 23 23 23 24 24
6 5 5 5 5 7 8 9 10 11 11 12 13 15 16 17 19 20 20 20 20 19 20 20 21 21 22 21 20 20 20 21 21 21 21 21 21 22 23 22 23 23 23 23 22 22 22 23 23
6 5 5 5 5 6 8 9 11 11 13 14 15 16 17 18 18 19 20 20 21 20 19 20 21 22 23 22 22 21 21 22 22 21 21 22 22 22 23 23 22 22 22 22 21 21 20 21 21
5 5 6 5 7 7 9 10 12 12 13 14 15 16 16 17 18 20 20 21 21 21 21 21 22 23 23 22 22 22 22 23 23 23 23 23 23 23 22 22 22 22 20 20 20 20 19 19 20
5 6 7 7 7 9 11 12 13 13 14 15 15 15 16 17 19 20 20 21 22 22 23 22 21 22 22 23 23 23 23 23 24 24 23 23 23 22 22 22 21 20 19 19 19 19 19 18 18
6 7 8 9 10 11 13 14 15 15 15 15 15 15 16 18 19 20 20 22 22 23 22 22 22 23 22 23 23 23 24 24 24 24 23 23 22 21 20 20 19 19 19 19 19 18 18 19 19
7 8 8 10 11 12 14 14 14 16 16 16 16 17 17 19 19 19 20 21 22 23 23 23 23 23 23 23 23 23 23 24 24 24 23 22 21 21 20 19 19 19 19 20 19 19 19 19 19
8 9 9 9 11 12 13 14 15 17 18 18 18 19 19 20 20 19 19 20 23 23 22 23 24 24 24 24 23 22 22 23 22 21 21 20 20 19 19 19 19 19 19 20 19 19 19 19 19
9 10 10 10 11 13 14 14 15 18 18 19 21 21 20 22 23 23 24 23 22 22 23 24 23 23 23 23 23 22 21 22 21 21 20 19 19 19 19 18 18 19 20 19 19 19 20 20 20
10 10 10 10 11 13 14 14 15 17 19 20 21 22 23 23 24 24 23 22 23 23 23 23 22 22 22 21 21 20 20 21 20 20 20 19 19 20 20 19 19 19 19 18 19 20 20 20 20
10 11 12 12 11 12 14 15 16 17 19 19 21 22 24 24 25 23 23 23 23 23 24 24 24 23 22 21 21 21 21 20 20 20 20 20 20 20 20 20 20 20 19 19 19 20 20 21 21
11 12 13 13 13 13 14 16 16 16 17 19 21 22 22 23 23 22 22 23 23 23 23 23 23 22 22 21 21 21 21 20 20 20 20 20 20 20 19 19 19 19 19 19 20 20 21 21 22
12 13 13 13 13 14 14 15 15 16 17 17 18 19 20 20 20 20 20 20 21 22 22 22 23 22 21 21 21 20 20 20 19 20 19 19 19 18 18 18 18 18 19 19 20 20 21 22 23
14 14 13 13 13 13 14 15 16 16 16 16 18 19 19 19 19 19 19 20 21 21 20 21 21 21 20 20 20 20 19 19 19 18 18 18 18 17 17 18 18 18 19 19 20 21 22 23 23
14 14 13 13 14 14 14 15 15 14 16 17 18 17 17 17 19 20 19 20 21 21 20 21 20 20 20 20 19 19 18 18 17 17 16 16 15 16 17 18 18 18 19 20 20 21 22 23 23
15 13 13 13 14 15 15 14 14 15 15 16 16 16 17 18 19 19 19 19 20 20 20 20 20 19 19 19 18 18 18 17 15 15 14 14 15 15 16 17 18 19 20 21 21 22 23 23 23
14 13 13 14 15 15 14 14 15 16 16 15 16 17 17 18 17 18 19 19 19 19 19 20 19 19 19 18 17 16 15 15 14 13 13 14 15 15 16 16 17 19 20 21 21 21 22 22 22
13 13 13 13 14 15 16 15 15 15 16 16 16 17 18 18 18 18 18 19 19 19 19 19 19 18 18 18 16 15 14 13 13 12 13 13 14 14 15 15 17 18 18 19 19 20 20 20 20
13 14 12 12 13 15 16 15 14 15 15 16 17 17 16 18 19 19 18 18 19 19 19 18 18 17 17 17 15 14 14 14 13 13 12 12 13 13 14 15 16 17 17 17 18 18 19 19 20

GEFSSGP_500_meanwind_210.txt.gz
Wind_Speed
7 7 6 5 4 4 4 4 4 4 5 5 6 7 7 6 6 7 7 7 8 9 9 9 10 11 11 10 9 10 10 10 10 10 11 11 12 12 12 12 12 13 13 13 13 13 13 13 13
8 8 7 7 5 5 5 5 5 5 5 6 7 7 7 7 7 7 8 8 9 10 10 10 10 10 10 10 11 12 12 11 10 11 11 12 13 13 13 13 14 14 14 14 14 14 14 15 15
8 9 8 8 7 7 6 6 6 7 7 7 7 8 8 7 7 8 8 9 10 10 10 11 10 10 11 12 13 13 13 12 11 12 13 13 13 14 14 14 14 14 15 15 16 16 16 16 16
9 9 9 8 8 8 7 7 6 8 8 8 8 8 8 7 8 9 9 10 10 10 11 11 11 12 12 13 14 14 13 13 13 13 14 14 14 14 15 15 16 16 16 16 17 17 17 17 17
9 8 8 8 8 8 7 8 7 8 7 7 7 7 8 8 9 9 10 10 10 11 11 12 12 12 13 13 14 14 14 14 14 14 15 15 15 16 16 16 17 17 17 18 18 18 19 19 19
9 9 9 8 8 8 6 7 7 8 8 8 8 8 8 9 9 9 10 11 11 12 12 13 13 14 14 15 15 15 15 15 16 16 17 16 16 17 18 18 18 18 19 19 19 19 20 20 20
9 9 9 8 8 7 6 6 7 8 8 8 8 9 9 10 10 10 10 11 12 12 13 14 15 15 16 17 16 16 17 17 17 17 18 17 18 18 18 19 19 20 20 20 20 20 20 21 21
9 9 9 9 8 7 6 7 8 8 8 8 8 9 10 11 11 11 12 12 13 13 14 15 16 17 17 18 17 17 17 18 18 18 18 19 19 20 20 21 20 20 21 21 21 21 22 22 22
9 9 9 9 9 8 7 7 8 7 8 9 10 11 11 11 12 13 13 13 14 14 15 16 17 18 17 18 18 18 18 18 18 19 19 20 21 21 21 22 21 21 21 22 22 22 23 23 23
10 10 10 9 9 9 8 8 8 9 9 10 11 12 12 13 13 14 14 14 15 15 16 16 17 19 20 19 18 19 19 20 20 20 20 20 21 21 22 22 22 22 22 22 22 22 22 23 23
9 10 10 10 10 10 10 9 10 11 10 10 11 11 12 12 13 14 15 16 16 16 16 17 18 19 20 20 19 19 19 20 21 21 21 21 21 21 22 22 22 23 22 23 23 23 23 23 23
9 9 10 10 10 10 10 10 11 11 10 10 11 12 13 13 14 16 16 16 16 17 18 18 19 20 20 20 21 21 20 21 22 22 22 22 21 22 22 23 23 23 23 23 23 23 23 22 22
9 8 9 9 10 9 9 9 10 10 11 12 13 13 14 15 17 17 17 17 18 19 20 20 20 21 21 20 21 21 22 23 22 22 22 22 22 23 22 23 23 23 22 22 22 22 22 22 21
9 9 9 9 9 9 9 10 12 12 12 13 13 13 15 16 17 18 18 18 19 20 21 21 21 20 20 20 21 21 23 24 23 22 22 22 22 22 22 22 22 22 22 22 21 21 21 21 21
9 8 9 9 10 10 11 12 12 12 13 14 14 15 17 17 18 19 20 19 19 20 22 22 21 20 20 21 21 21 22 22 22 21 21 21 21 21 21 22 22 22 22 21 21 21 21 21 21
8 9 10 11 12 11 11 11 11 12 13 14 15 16 17 18 19 20 20 20 20 21 21 22 21 20 20 21 22 21 22 21 21 21 21 21 21 21 21 21 21 20 20 20 20 21 21 21 21
9 9 10 11 12 11 10 10 11 12 13 15 16 17 18 19 20 21 21 21 21 21 21 21 21 21 21 21 22 22 21 20 21 21 21 22 22 21 20 19 19 19 19 20 20 20 21 21 21
10 10 10 10 11 11 11 11 12 13 14 15 16 17 18 20 20 21 21 22 22 21 22 22 22 22 21 22 23 22 20 20 20 21 21 21 20 20 20 19 18 18 19 20 21 21 21 22 22
9 9 9 9 11 12 12 12 13 14 15 16 17 17 18 19 20 21 22 22 22 22 22 22 23 22 22 22 22 21 20 20 20 20 20 20 19 19 19 19 19 20 20 21 21 21 22 21 22
10 10 10 11 11 12 13 13 14 15 17 17 18 18 19 20 20 21 22 22 22 22 22 22 23 22 22 21 21 21 20 20 19 19 18 18 18 19 19 19 19 19 20 20 21 21 21 22 23
10 11 11 11 12 13 14 14 15 16 17 18 18 19 20 20 22 22 22 22 22 22 22 22 21 21 21 20 20 19 19 18 18 18 17 17 18 18 17 18 19 19 19 20 21 22 22 22 23
11 11 12 13 14 15 15 16 16 17 18 19 19 20 20 21 22 22 22 23 23 22 22 22 20 19 19 19 19 17 17 17 17 17 16 16 17 17 17 18 19 20 20 20 21 22 23 23 24
12 12 13 13 15 15 16 17 17 18 19 21 21 21 20 20 21 21 21 21 21 22 22 20 19 17 18 18 19 18 18 17 16 16 16 16 17 17 18 18 19 20 21 22 22 23 22 23 23
14 15 15 16 16 16 16 17 17 18 19 20 21 21 21 20 21 20 19 19 20 22 21 20 18 17 17 18 18 18 18 17 16 17 16 16 17 18 18 19 19 20 21 21 21 22 22 23 23
15 16 17 17 17 17 17 17 17 18 17 19 19 19 19 19 19 19 18 18 18 18 18 16 16 17 18 18 18 18 18 17 17 17 15 16 17 17 18 18 19 20 20 20 21 21 22 23 24
16 16 17 18 18 17 17 17 16 16 17 18 19 18 18 18 17 17 16 16 17 17 16 16 16 16 17 18 17 18 18 18 18 17 15 16 16 16 17 18 19 20 20 21 21 21 21 22 23
16 16 17 17 18 18 17 17 16 17 18 18 18 18 17 17 17 16 16 16 17 17 17 16 16 16 17 17 17 17 17 17 17 16 15 16 16 16 17 17 18 19 20 21 21 21 21 21 22
16 16 16 17 18 19 18 17 18 17 17 17 17 18 18 18 17 17 17 17 17 17 16 16 16 16 16 16 17 17 16 16 16 15 15 15 16 16 16 17 18 19 19 20 20 20 20 20 21
15 16 16 17 18 19 20 19 18 17 16 17 17 17 17 17 17 18 18 19 18 18 17 17 17 17 17 17 17 17 16 16 16 16 15 15 16 17 17 18 18 18 18 18 19 19 19 19 20
17 17 17 18 18 19 19 18 17 16 17 18 17 17 17 17 18 18 18 18 18 18 18 18 18 17 17 17 17 16 16 16 16 16 15 16 17 17 17 17 16 16 17 18 18 18 18 18 18

GEFSSGP_500_meanwind_216.txt.gz
Wind_Speed
4 3 3 3 2 3 4 4 4 4 4 3 2 2 2 2 3 4 4 4 5 6 6 6 6 6 7 7 7 8 8 7 8 8 8 7 7 7 8 8 9 9 10 10 10 11 11 11 11
5 5 4 3 2 5 6 6 6 6 5 4 4 4 5 5 5 5 5 5 6 7 7 7 8 7 8 8 8 8 9 9 9 9 10 10 10 9 9 10 10 10 11 12 11 12 12 12 13
6 6 5 4 5 7 7 7 7 6 6 5 5 5 6 6 7 7 6 6 7 8 8 8 9 9 9 9 10 10 10 10 10 11 11 11 11 11 11 11 11 12 12 13 13 13 13 14 14
7 7 6 5 7 7 8 8 7 8 7 6 6 6 6 7 8 8 8 8 8 9 10 10 10 10 10 10 11 12 12 12 12 13 12 13 13 12 12 12 12 12 13 13 13 13 14 14 15
7 6 5 6 8 9 9 9 8 8 8 6 6 6 7 7 7 8 9 10 10 10 10 10 11 11 11 12 12 13 14 13 13 14 14 14 14 14 14 14 13 13 13 14 15 15 14 15 15
7 6 6 8 9 9 8 8 8 8 8 7 6 6 7 8 9 9 10 11 11 11 11 12 12 13 13 13 14 14 15 15 15 16 15 16 16 15 15 15 15 15 15 15 16 16 16 16 16
8 7 7 8 9 9 9 7 7 8 8 7 6 6 7 8 10 11 12 12 12 12 13 14 14 14 14 15 15 16 16 17 17 17 16 16 16 17 17 16 16 16 16 17 17 17 17 17 17
8 7 7 8 9 9 9 8 8 8 9 8 8 8 8 9 10 11 11 12 13 12 13 13 14 15 15 16 16 17 18 18 18 18 18 17 17 18 18 18 18 17 17 18 18 19 19 19 18
8 7 8 9 9 10 9 9 9 9 10 10 9 9 9 10 11 11 12 12 12 13 13 14 15 16 16 17 18 19 19 19 19 19 19 19 19 18 18 19 19 19 19 19 19 19 20 19 19
8 8 9 9 10 9 9 8 8 9 9 10 10 10 10 11 12 12 12 13 13 14 15 15 16 17 17 18 19 19 19 20 20 19 19 19 19 19 19 19 19 19 19 20 20 19 20 20 20
9 8 8 9 9 9 9 9 9 10 9 10 11 11 12 12 13 13 13 14 15 15 16 17 17 18 18 19 19 20 20 20 20 20 19 19 19 19 20 20 19 20 20 20 20 20 19 19 19
8 8 8 9 9 8 9 9 9 10 11 11 12 12 12 13 14 15 15 17 17 16 16 17 17 18 18 18 18 19 20 20 20 20 19 19 19 20 20 20 20 20 20 20 19 20 19 19 19
8 8 8 9 9 9 9 9 10 10 11 12 12 12 13 15 15 16 17 18 18 18 18 18 18 17 18 18 19 19 20 20 20 20 20 19 20 20 20 20 20 20 20 21 20 20 20 20 19
8 7 8 9 10 9 10 10 11 11 11 11 12 13 14 15 16 17 18 19 19 19 19 19 19 19 20 20 20 20 20 21 20 20 20 20 20 19 19 20 20 21 21 21 21 21 20 21 20
7 7 7 8 8 9 10 10 11 11 11 11 12 13 15 15 16 17 19 20 21 20 19 19 20 20 21 21 21 20 20 21 20 20 20 20 20 20 20 20 20 21 21 22 22 21 21 21 21
7 6 7 8 8 9 9 10 10 10 11 12 12 13 15 15 16 18 20 20 20 21 21 21 21 21 21 21 21 21 21 21 21 21 20 21 21 21 21 21 21 21 20 20 20 21 21 21 22
7 7 8 10 9 9 9 10 11 12 13 13 14 15 16 17 17 18 19 20 20 21 22 21 21 21 20 20 20 21 21 20 20 20 20 20 20 20 20 21 21 20 19 19 19 20 20 20 21
9 8 10 10 10 9 10 11 12 13 14 15 15 16 16 17 18 19 19 19 20 21 21 21 21 20 19 19 19 20 20 20 20 20 19 19 19 19 19 19 19 19 18 19 19 19 20 20 21
9 10 10 10 9 10 10 12 13 13 14 14 15 16 18 19 20 19 20 20 20 21 21 21 20 19 20 20 20 20 19 18 18 18 18 17 17 17 17 18 18 19 19 19 19 20 20 21 21
10 11 11 11 10 11 11 12 13 14 14 15 16 17 18 20 20 19 19 19 20 20 21 21 19 18 20 20 20 19 17 17 16 16 16 17 16 16 17 16 17 18 18 18 20 20 21 21 22
10 10 11 11 11 12 13 13 14 15 15 16 17 17 18 19 18 18 19 19 20 20 20 20 19 19 19 19 18 17 16 15 16 16 16 17 17 16 16 16 16 17 18 18 19 20 21 21 22
11 11 11 11 12 13 13 14 15 16 16 17 17 18 18 19 18 18 19 19 20 19 19 19 18 18 18 18 17 16 15 16 16 16 16 16 16 16 15 15 17 18 18 19 19 20 21 21 22
11 11 12 12 12 13 14 14 16 16 17 17 18 19 18 18 18 19 19 18 18 18 18 17 17 18 18 17 16 15 14 14 15 16 15 16 15 15 15 16 17 18 18 19 19 20 21 21 21
11 11 13 13 13 14 14 14 16 16 17 17 18 19 19 18 18 18 17 18 18 18 18 18 17 18 17 16 15 14 13 14 14 15 15 15 15 14 15 16 16 17 18 18 19 19 20 20 20
11 11 11 12 12 13 15 15 16 16 17 17 18 18 18 19 19 19 18 19 19 18 18 18 18 18 17 15 13 13 13 14 14 14 14 14 14 15 15 15 16 17 17 17 17 18 18 19 19
11 10 11 11 11 14 15 15 16 16 17 17 18 19 19 19 19 19 18 18 18 17 17 16 16 16 16 14 12 12 12 13 13 13 14 13 14 15 15 15 15 15 15 16 17 17 18 18 19
11 11 12 13 13 14 15 16 16 16 17 17 18 18 18 18 18 18 18 18 18 17 17 16 16 15 14 13 13 13 13 13 13 14 14 14 14 15 15 14 13 13 15 16 16 17 18 19 19
12 12 13 13 14 14 16 16 16 16 16 17 18 18 18 18 17 17 17 17 17 17 17 17 16 15 14 14 13 13 13 13 13 13 14 14 14 14 14 13 13 14 15 16 16 17 18 18 18
13 14 14 14 14 14 14 16 16 17 17 17 17 17 17 17 17 17 17 17 17 16 15 16 15 14 13 14 14 14 14 13 13 13 14 14 13 14 14 13 14 14 15 16 16 16 16 16 17
14 15 14 15 15 15 15 16 17 17 17 17 17 16 16 17 17 17 17 17 16 16 15 15 14 14 14 14 14 13 13 13 13 13 13 13 13 14 13 13 13 14 15 15 16 16 15 15 16

GEFSSGP_500_meanwind_222.txt.gz
Wind_Speed
3 3 3 2 1 1 1 3 6 8 8 8 8 8 7 7 8 8 8 8 8 8 8 9 9 10 10 10 10 10 9 10 10 10 9 10 10 11 11 11 11 11 11 11 11 11 11 11 12
5 5 4 2 1 1 2 6 8 9 8 9 8 9 8 8 8 9 10 9 9 10 10 10 11 11 11 11 11 11 11 11 11 11 11 11 11 12 12 12 12 12 12 12 12 12 12 12 12
6 6 5 2 3 5 6 8 10 10 8 9 9 9 9 10 9 10 12 12 11 12 12 12 12 12 11 11 11 12 11 11 12 12 12 12 12 13 13 13 13 12 13 13 13 14 13 13 13
7 7 4 3 5 6 9 10 11 10 9 10 10 9 10 11 11 12 13 13 14 14 14 14 13 12 13 13 12 12 12 12 12 13 13 13 14 14 14 13 13 14 14 14 14 15 15 15 15
8 5 4 4 6 8 10 12 11 10 10 11 11 11 11 12 13 13 14 15 15 15 15 15 14 14 13 14 13 13 13 13 13 14 14 15 15 15 14 14 14 14 14 15 15 15 16 16 16
8 5 5 5 7 9 12 13 12 12 12 11 13 12 13 14 14 15 15 15 15 15 15 15 16 15 15 15 14 14 15 15 15 15 16 16 16 15 15 15 15 15 15 16 16 16 16 17 17
8 6 6 6 9 11 12 13 11 11 12 12 13 12 13 14 15 16 16 15 15 15 16 16 16 15 15 15 15 15 16 16 16 16 17 17 16 16 16 16 16 16 16 16 16 16 17 17 17
7 6 7 8 11 12 13 13 11 12 13 12 13 13 13 13 14 14 15 15 16 15 15 15 16 15 15 15 16 16 16 17 17 17 17 17 17 17 17 17 17 17 17 17 17 17 17 17 17
6 5 6 8 11 12 12 12 13 14 14 12 13 13 13 12 12 14 15 15 16 15 15 15 15 15 15 16 16 16 16 18 18 18 18 19 19 18 17 17 17 17 18 18 18 18 18 18 17
7 6 8 9 10 13 13 12 13 14 13 13 13 13 14 12 12 13 15 16 16 16 17 15 14 15 16 16 16 16 17 18 18 19 19 19 20 19 18 18 18 18 18 18 18 18 18 18 17
8 8 10 11 12 12 13 13 13 13 13 14 14 14 14 13 13 15 16 16 17 17 16 15 15 16 17 17 17 18 18 18 19 19 19 20 20 20 20 19 19 19 19 18 18 18 18 18 18
10 9 11 12 12 12 12 12 13 12 13 14 14 13 14 14 15 16 17 17 17 17 17 17 17 17 17 18 18 19 19 19 19 19 20 20 20 19 19 19 19 19 18 18 19 18 18 18 18
10 11 12 11 10 11 11 11 12 11 12 14 14 14 14 15 16 17 17 17 17 17 18 18 18 18 18 18 19 19 19 19 20 20 20 19 19 19 19 19 19 19 19 19 19 19 19 19 19
8 10 10 10 10 10 11 12 12 12 13 14 15 16 16 17 17 17 18 19 18 18 19 19 18 18 18 19 20 19 19 19 19 20 20 20 20 19 19 19 19 19 19 20 20 20 20 20 19
7 8 9 9 11 12 12 13 13 13 14 15 16 17 18 18 18 18 19 19 19 19 19 19 20 20 19 19 20 21 19 18 19 20 21 21 20 20 19 19 19 19 19 19 19 19 19 19 19
6 8 9 11 13 14 14 13 14 16 16 16 17 18 19 19 18 18 19 19 20 20 20 20 22 21 21 21 20 21 21 20 20 21 21 21 21 21 20 20 19 19 19 19 19 18 18 19 20
6 9 10 12 14 15 14 15 16 16 16 17 18 18 19 19 19 19 20 20 20 21 21 21 22 22 22 21 21 22 22 21 21 21 21 22 21 20 19 18 18 18 18 18 19 18 19 19 20
9 10 11 14 16 16 16 17 19 16 16 18 19 18 19 20 20 21 21 21 21 21 21 21 22 22 23 22 22 22 22 22 22 21 21 21 21 20 19 19 18 18 17 17 18 18 19 19 19
11 11 12 14 16 16 17 18 18 18 18 18 19 19 20 21 21 22 22 22 22 21 22 22 23 23 23 23 22 23 23 22 21 21 22 21 20 19 19 19 18 17 17 18 17 17 18 18 19
11 12 13 15 18 18 18 18 18 18 16 18 19 20 21 22 22 22 22 22 22 22 22 22 22 22 22 21 22 22 21 21 21 21 21 21 19 18 18 18 17 16 16 16 17 16 17 18 19
11 11 13 16 18 18 18 18 18 18 17 17 19 19 21 23 22 22 22 22 22 22 21 21 20 20 20 20 21 20 20 20 19 20 20 19 19 18 17 17 16 16 16 15 15 16 17 18 18
11 11 14 15 15 15 16 16 18 19 19 20 20 19 21 23 23 23 23 22 21 21 21 20 18 18 18 19 19 19 19 18 18 18 18 17 18 17 15 15 15 15 15 14 15 16 17 18 18
11 11 13 13 14 13 15 16 18 21 20 19 20 21 21 22 22 22 23 22 21 20 20 20 18 18 18 18 18 18 18 17 16 17 16 16 16 16 16 15 16 15 15 14 15 16 17 18 18
10 10 11 11 13 14 14 17 20 20 21 20 21 22 21 22 22 22 22 22 21 20 20 18 18 17 17 18 17 16 16 15 15 16 16 16 15 15 15 15 15 15 15 15 16 17 17 17 18
10 10 10 11 13 14 15 16 19 19 20 20 20 21 21 21 22 22 21 22 22 21 20 18 18 18 18 17 16 15 15 16 15 15 16 15 14 13 14 14 15 15 15 15 17 17 17 18 19
11 10 11 12 12 13 14 17 20 21 22 20 20 20 20 20 20 20 22 23 22 21 20 19 18 18 18 17 16 16 16 16 16 15 15 14 13 13 13 14 15 15 15 16 17 18 18 18 18
11 10 12 13 12 14 15 17 18 20 21 19 19 19 19 21 20 21 22 23 22 22 21 19 18 17 17 17 17 16 15 15 14 14 14 14 14 14 13 14 15 15 15 16 17 17 18 18 19
10 11 11 12 12 13 14 17 20 19 19 21 21 20 19 20 21 21 21 22 23 22 20 19 17 17 17 17 15 14 14 14 14 14 14 14 14 14 14 14 15 15 16 16 17 17 17 17 18
10 11 12 12 12 13 15 19 19 21 21 22 21 20 20 20 21 23 22 22 22 21 19 17 16 16 16 15 14 14 14 14 14 14 14 14 14 14 14 14 14 15 15 15 15 16 16 17 18
12 12 13 15 14 15 16 19 19 20 21 22 22 21 21 21 21 22 21 21 20 19 17 16 15 15 15 15 14 14 14 14 14 15 15 15 15 15 15 15 14 14 14 15 15 15 16 17 18

GEFSSGP_500_meanwind_228.txt.gz
Wind_Speed
8 7 6 6 5 3 1 1 2 3 4 5 7 8 8 8 8 9 10 10 9 9 9 8 9 9 9 10 10 10 10 11 11 11 11 11 11 11 11 11 12 12 12 12 13 12 12 12 13
9 8 7 7 6 5 4 4 4 5 5 6 8 9 10 9 9 9 10 10 10 10 10 10 10 10 10 10 10 10 10 10 11 11 11 12 11 12 12 12 13 13 13 13 13 13 13 12 13
10 9 9 8 8 6 5 5 6 7 7 8 10 11 11 10 10 10 10 9 10 10 10 11 10 10 10 10 11 10 10 11 11 11 12 12 12 12 13 13 13 14 14 14 14 14 13 13 13
10 10 10 10 8 7 7 7 7 8 8 10 11 12 11 11 11 11 10 10 10 10 10 10 10 11 12 11 11 11 10 10 11 11 12 12 12 13 13 14 14 14 14 15 15 14 14 14 15
10 10 11 11 10 9 8 9 9 8 10 11 11 11 11 12 12 12 12 11 10 10 10 11 10 11 13 13 11 12 11 11 11 11 11 12 12 13 14 15 15 15 15 16 16 16 16 16 16
11 11 12 11 10 9 9 9 9 10 12 13 13 12 12 13 12 12 12 12 11 11 11 12 12 12 13 13 12 13 12 11 12 12 12 12 13 14 15 15 15 15 16 16 16 16 16 16 16
12 12 11 9 10 10 9 8 10 13 14 14 13 13 12 12 12 13 13 13 12 12 12 12 12 12 12 12 13 12 12 11 11 11 12 13 13 14 15 15 15 16 17 17 17 17 17 17 17
12 12 10 8 9 10 10 10 11 13 13 12 12 13 12 13 12 12 12 12 11 10 10 11 11 12 12 13 12 12 12 12 11 12 13 14 14 15 15 16 16 16 17 17 17 18 18 17 17
12 10 9 8 7 8 10 10 11 12 12 10 11 11 12 12 13 13 12 11 10 10 10 11 11 12 13 14 14 13 13 12 12 13 14 14 15 15 16 16 16 17 17 17 17 18 18 18 18
12 10 8 8 7 7 9 11 12 12 11 10 10 11 12 12 12 13 13 12 12 12 12 12 12 12 13 14 14 13 13 13 13 14 15 16 16 16 17 17 17 18 17 17 17 18 18 19 18
13 10 8 6 6 8 10 11 12 12 12 11 11 11 11 11 12 12 13 13 13 13 12 13 13 13 14 14 13 13 14 14 15 15 16 17 17 17 17 18 18 18 17 17 17 18 18 18 18
12 10 8 7 9 10 10 11 12 12 12 11 10 12 12 12 12 13 13 14 14 13 13 13 14 14 14 15 15 15 15 15 16 16 16 17 17 17 17 17 17 17 17 17 17 17 17 18 19
11 10 9 8 10 11 11 11 11 12 12 11 11 12 14 13 14 14 15 15 15 14 14 14 16 16 16 16 16 16 16 16 16 17 17 17 17 17 18 17 16 17 17 18 18 18 17 18 18
10 10 9 9 10 10 11 11 11 12 11 11 11 11 12 13 14 14 15 16 15 15 15 15 16 17 17 17 16 16 17 17 17 17 17 17 17 18 17 18 17 17 18 18 18 18 18 18 18
10 9 8 8 10 11 12 13 11 11 11 11 12 12 11 12 14 14 15 15 14 15 15 16 17 17 17 17 18 18 18 18 18 17 17 18 18 19 18 17 17 17 18 18 18 18 18 18 18
10 9 8 8 9 11 13 13 13 12 13 13 13 13 12 12 14 15 14 14 14 15 16 17 18 18 18 18 19 19 19 19 19 18 18 18 18 19 19 18 18 17 18 18 18 18 18 18 19
10 10 9 9 10 12 14 14 14 15 14 14 14 14 13 14 14 15 15 15 15 15 16 18 19 19 19 19 19 19 18 18 19 19 19 19 18 18 18 18 17 17 17 17 18 18 18 18 19
11 11 11 10 12 13 14 14 15 16 15 15 16 15 15 16 16 16 16 15 15 16 17 18 18 18 19 19 19 18 18 18 18 18 19 19 19 18 18 18 17 17 17 17 17 17 18 18 19
11 12 11 11 12 14 15 15 15 16 16 16 16 15 16 16 16 17 17 16 16 17 19 19 19 19 19 20 19 18 18 18 19 19 19 19 19 17 17 18 18 17 17 17 17 17 17 17 17
11 11 11 11 13 15 16 17 17 17 17 17 16 16 17 17 17 17 16 16 17 17 19 20 19 20 20 20 19 19 18 18 18 18 19 18 18 18 17 16 16 16 17 17 17 17 17 17 17
9 11 12 13 14 15 16 17 18 18 18 17 16 16 18 18 18 17 18 18 18 19 20 20 19 19 20 19 19 18 18 18 18 18 18 17 18 17 16 15 15 15 15 16 16 17 17 17 17
10 10 13 15 16 17 17 18 17 17 17 17 17 18 19 18 18 18 18 18 20 20 21 21 20 20 20 19 19 18 18 17 17 16 16 16 15 15 15 15 14 14 15 15 16 16 16 16 17
10 11 12 14 16 17 18 18 17 16 16 16 17 18 18 18 18 19 19 20 20 21 20 20 20 20 19 18 18 18 17 17 17 16 15 14 14 15 15 14 14 14 14 15 16 16 17 17 18
11 12 13 14 15 15 15 16 17 16 16 16 16 17 18 18 19 19 20 20 20 20 19 19 20 19 18 18 17 17 16 16 16 16 14 14 14 14 14 14 14 15 15 15 16 16 17 18 18
12 12 13 14 15 15 15 16 15 15 15 16 15 16 18 19 19 18 20 20 19 19 19 19 20 19 17 17 16 16 15 16 16 15 14 14 13 13 14 14 15 16 16 16 16 16 17 17 17
13 13 14 15 15 16 17 17 16 15 15 13 13 15 17 18 17 16 18 20 20 19 18 19 19 17 17 16 15 15 15 14 14 14 14 13 13 13 14 14 15 16 15 15 14 15 16 16 16
13 14 14 16 16 17 18 17 16 15 15 14 14 15 16 16 15 15 17 18 18 19 19 18 16 15 15 14 13 13 14 13 13 13 13 13 13 13 13 14 15 15 15 15 15 15 16 16 16
13 14 15 15 17 18 18 16 15 15 15 14 14 14 16 16 16 16 17 17 18 18 18 17 16 14 13 13 13 13 13 13 13 14 14 14 13 13 13 13 14 14 14 14 15 15 15 15 15
13 14 15 16 17 17 18 17 16 16 15 14 15 16 16 16 17 17 16 16 17 17 17 16 14 13 12 12 12 12 13 13 13 13 13 13 13 13 13 13 14 14 14 14 14 15 14 15 15
14 14 15 17 17 17 18 18 16 16 16 16 16 16 16 16 16 17 17 17 17 16 16 15 13 12 12 12 12 13 13 14 14 14 13 13 13 13 14 14 15 15 15 14 13 13 13 15 16

GEFSSGP_500_meanwind_234.txt.gz
Wind_Speed
10 9 9 8 7 6 4 3 3 3 4 5 6 6 6 7 7 8 9 10 11 11 10 9 8 8 8 8 8 8 8 8 8 8 9 9 8 8 8 8 9 9 10 11 11 11 11 11 11
10 10 10 9 8 7 5 5 5 5 6 6 7 6 7 7 8 8 9 10 10 10 10 9 9 9 9 9 9 9 8 8 8 9 9 9 8 8 9 9 9 10 11 11 12 12 12 12 12
11 11 10 9 8 7 7 6 6 7 7 7 8 7 7 7 8 9 10 10 10 10 10 9 9 9 9 9 9 9 8 9 9 9 9 9 9 9 9 9 10 11 11 12 12 12 12 12 12
12 11 12 10 9 8 8 8 8 8 8 8 7 9 7 6 8 9 10 10 10 9 9 9 10 9 9 9 9 8 9 9 9 9 9 10 10 10 10 10 11 11 11 12 13 13 13 13 13
12 12 12 11 10 10 10 10 9 9 8 8 8 8 8 7 8 9 9 9 9 9 9 9 9 9 9 9 9 9 9 9 9 10 10 10 10 11 11 12 12 12 13 13 13 13 14 14 14
13 12 11 11 12 12 11 10 9 8 8 9 9 9 9 9 9 8 9 9 8 8 9 10 10 9 9 9 9 9 9 9 10 10 10 10 10 10 11 13 13 13 14 14 14 14 14 14 15
13 12 12 11 11 11 11 10 9 9 9 10 11 11 10 10 9 9 9 8 8 9 9 10 10 10 10 10 10 10 9 10 11 11 11 11 11 12 13 13 14 14 14 15 15 15 15 15 16
12 12 12 12 10 10 10 10 10 10 9 10 11 11 10 10 10 10 9 9 9 10 10 10 11 11 11 11 11 10 10 11 12 12 12 12 12 13 13 14 15 15 15 15 15 16 16 16 17
12 13 12 12 11 10 10 10 10 9 9 10 11 11 11 11 11 11 9 9 9 10 10 10 11 11 11 11 11 11 11 12 13 13 13 13 13 14 15 15 16 15 15 16 16 16 16 16 17
12 13 12 12 11 11 11 10 10 9 9 10 10 11 11 11 12 11 9 9 9 9 10 12 13 13 12 12 11 11 12 13 14 14 14 14 14 15 16 17 16 15 15 16 16 17 16 16 16
13 12 12 11 11 11 11 10 10 10 9 9 9 10 10 10 11 11 11 10 10 10 11 13 13 14 13 13 12 12 13 14 15 15 15 15 15 16 16 17 17 16 16 16 16 16 16 16 17
13 13 13 13 13 12 11 11 10 9 9 9 9 10 10 10 11 11 11 11 11 11 12 13 13 14 14 13 14 13 13 15 16 16 17 16 16 17 17 17 17 17 16 16 17 16 17 17 18
13 13 13 13 13 12 11 9 8 9 10 9 9 9 10 10 11 11 10 11 12 11 13 13 14 14 13 13 13 14 15 15 16 17 17 17 17 17 18 18 18 18 17 17 17 17 18 18 18
14 14 14 13 14 13 11 10 9 8 9 10 10 10 10 11 11 11 11 11 11 12 13 15 15 15 15 14 15 15 16 17 17 17 17 18 18 18 18 19 18 18 18 17 17 17 18 18 18
14 13 13 13 13 12 12 11 9 9 10 10 11 12 11 11 11 12 11 11 11 12 13 15 16 16 16 16 16 17 17 18 17 18 18 18 18 18 18 18 18 18 18 18 18 18 18 18 18
14 13 13 13 12 12 12 11 10 10 10 11 12 12 12 12 12 12 13 12 12 13 14 14 15 15 15 16 16 17 17 18 18 19 19 18 18 18 18 19 18 18 18 18 18 18 17 17 18
15 14 14 14 13 13 13 12 11 11 11 11 12 13 13 13 13 13 13 13 14 15 15 15 15 15 16 16 17 18 18 19 19 19 19 19 18 18 18 18 18 18 18 18 18 17 17 18 19
15 15 14 14 13 14 14 12 12 12 12 12 13 13 13 14 13 14 14 15 16 17 17 16 16 16 16 17 18 18 19 19 19 19 18 18 18 17 17 17 17 17 17 18 18 18 18 18 19
15 16 16 15 14 15 15 13 13 13 12 13 13 13 14 14 14 15 16 17 17 18 18 17 17 18 18 18 18 19 18 18 18 18 18 18 17 17 17 17 16 17 17 18 18 18 18 18 18
16 17 16 16 16 17 16 14 14 13 13 13 14 15 15 15 16 16 17 18 17 18 19 18 17 18 19 19 19 18 18 17 18 18 18 18 17 17 16 16 17 17 17 18 18 18 18 18 18
16 17 16 16 17 18 18 16 14 14 14 14 15 16 17 17 17 18 18 18 18 18 18 18 17 18 19 19 18 18 18 18 18 17 17 17 17 17 16 16 16 17 17 17 17 17 18 18 19
14 15 16 17 18 18 17 16 15 15 15 16 17 18 18 18 19 19 19 18 17 17 17 17 18 19 19 19 17 17 18 18 17 17 17 17 17 17 17 17 17 17 17 17 17 17 18 19 19
14 15 16 17 18 17 17 18 16 14 15 16 17 18 18 18 18 18 18 18 17 18 18 18 19 20 19 18 17 16 17 17 16 16 16 17 17 17 17 17 17 16 16 17 17 17 18 19 19
15 16 17 18 18 17 16 17 15 15 15 17 17 18 18 17 17 17 17 17 17 17 18 18 19 20 19 18 17 16 17 17 16 16 15 16 16 17 16 16 16 17 17 17 17 18 18 18 19
17 17 18 19 19 18 17 17 16 16 16 17 18 18 18 17 17 16 16 17 17 18 18 19 19 19 19 18 17 16 16 16 16 16 16 16 16 16 16 16 17 17 17 17 17 18 18 18 18
17 17 17 17 17 16 16 17 16 16 17 17 17 18 18 17 16 16 16 17 18 18 18 18 18 18 17 17 16 16 15 14 14 15 15 16 15 15 15 15 16 16 16 16 16 17 17 18 18
16 16 16 17 17 17 17 16 16 16 17 17 17 17 16 16 16 16 17 18 18 19 18 17 17 15 14 14 14 14 14 14 14 14 14 14 14 14 14 14 14 14 15 15 16 16 17 17 17
17 16 16 16 18 18 18 16 17 16 17 17 17 16 16 15 16 16 17 18 18 18 16 15 15 14 14 14 14 14 14 14 13 13 14 14 15 15 14 13 13 13 14 15 15 15 15 15 16
17 16 17 18 19 19 19 17 17 17 17 16 16 16 16 16 16 17 17 17 16 16 16 15 14 14 14 14 13 13 13 13 13 13 14 14 14 14 13 13 13 13 14 14 14 15 15 15 16
16 16 17 18 19 19 19 18 17 16 16 16 17 17 17 16 16 16 16 16 16 16 16 14 13 13 13 13 14 13 13 14 14 14 14 14 14 14 13 13 13 13 13 13 14 15 15 16 16

GEFSSGP_500_meanwind_240.txt.gz
Wind_Speed
6 6 5 5 5 4 7 5 4 4 5 5 5 4 4 4 4 5 5 5 5 5 5 5 5 4 4 4 3 3 3 3 3 3 4 3 3 3 3 3 4 5 5 6 6 7 7 8 8
7 6 6 6 5 7 9 7 5 6 6 6 6 5 5 6 6 6 6 6 5 6 5 5 5 4 5 4 5 4 4 4 4 4 4 4 4 4 4 4 5 5 6 7 7 8 8 9 9
7 7 7 6 6 8 10 9 7 7 7 6 6 6 6 6 7 6 6 6 6 6 6 6 5 5 6 5 5 5 4 4 5 5 5 4 5 5 5 5 6 6 7 8 8 9 9 9 10
8 8 8 8 8 9 9 10 9 8 7 7 7 6 6 6 6 5 5 6 6 6 7 8 7 6 7 7 5 6 6 6 6 6 6 5 5 5 6 6 7 7 8 8 9 10 10 10 10
8 8 8 9 10 10 10 10 9 8 8 7 7 6 6 6 5 5 5 6 6 7 8 8 8 8 7 7 7 8 7 7 7 7 6 5 6 6 6 7 8 8 9 9 10 10 11 11 11
8 8 9 10 11 11 11 10 10 9 8 8 7 7 7 7 6 7 8 7 7 8 8 8 8 8 8 8 8 8 8 7 7 6 6 7 7 7 7 8 9 9 10 10 10 11 11 11 11
9 9 9 10 11 11 11 10 10 10 9 9 8 7 7 7 7 8 8 8 8 8 9 9 8 8 9 9 9 8 8 8 7 7 7 8 8 8 8 9 10 10 11 11 11 11 11 11 12
9 9 9 10 11 12 11 11 10 10 9 8 8 8 8 8 8 8 9 8 9 8 8 8 8 9 9 9 9 9 8 9 8 8 9 9 9 10 10 11 11 11 12 12 12 11 12 12 13
9 9 9 11 12 13 12 11 11 10 10 9 8 8 8 8 8 9 9 10 10 9 9 9 10 9 9 9 8 9 9 10 10 10 10 10 11 11 12 12 12 12 13 13 12 12 12 13 13
10 10 10 12 12 13 12 11 11 11 11 11 10 10 9 9 9 10 10 10 10 10 9 10 10 9 9 8 9 9 10 11 11 11 11 11 12 13 13 13 13 13 13 13 14 14 14 14 14
11 11 11 11 12 12 11 11 11 11 11 11 12 10 9 9 10 11 11 11 11 12 11 10 10 10 9 10 10 10 11 12 12 13 13 14 14 14 15 15 14 14 14 14 14 14 14 14 15
11 11 11 12 12 11 11 11 11 11 11 12 12 10 9 9 10 11 11 11 11 11 11 11 10 10 10 10 11 11 12 13 13 12 14 15 16 16 16 16 15 15 14 15 15 15 14 15 15
12 12 13 13 13 13 12 13 12 12 12 12 12 12 11 10 10 11 12 12 11 11 11 11 11 12 11 12 13 13 13 13 13 13 14 15 16 17 17 17 17 16 15 15 16 15 15 15 16
13 13 13 14 14 14 13 13 13 12 13 13 13 12 12 12 12 12 12 12 12 12 12 13 13 14 14 14 14 14 14 14 14 15 15 16 17 17 18 18 18 17 16 16 16 16 16 16 16
13 13 13 15 15 15 14 13 13 13 13 13 13 13 13 13 13 13 13 13 13 14 14 13 14 14 14 14 14 15 15 15 15 15 15 15 16 16 17 17 17 16 16 17 17 17 17 17 17
13 13 13 15 16 15 15 14 14 13 13 13 13 14 14 13 14 13 13 13 14 14 13 14 15 15 14 15 15 16 16 16 16 15 15 15 16 16 16 16 17 16 16 16 16 16 17 18 18
13 13 14 15 16 16 15 14 14 14 14 13 13 13 15 15 15 14 14 13 14 14 14 15 16 16 16 16 16 16 16 16 16 15 16 16 16 16 17 17 17 16 16 15 16 16 17 17 17
14 14 15 15 16 16 15 15 14 15 15 14 14 14 14 15 14 14 14 14 14 15 15 16 17 17 17 17 16 16 16 15 16 16 16 15 16 16 17 17 16 16 16 16 16 16 16 17 17
15 15 15 15 16 16 16 15 15 15 15 15 14 14 15 16 16 15 15 15 16 16 17 17 17 17 17 17 17 16 16 16 16 16 17 16 16 16 16 16 16 17 17 16 15 16 16 17 18
15 15 15 15 16 16 16 16 16 15 15 15 14 15 16 17 17 17 17 17 18 18 18 18 18 17 17 18 17 17 16 17 17 17 17 17 16 16 16 15 16 16 16 16 16 16 16 16 17
15 15 15 16 16 15 16 16 16 16 16 15 15 16 17 18 18 18 18 18 18 18 18 18 17 18 18 18 18 17 17 17 17 17 17 17 17 17 16 15 16 16 15 16 17 17 17 17 17
14 14 15 15 15 15 15 16 17 16 16 16 16 17 18 19 18 18 18 17 17 17 17 17 17 18 18 19 18 18 17 17 17 17 17 18 17 16 16 17 17 18 18 17 17 17 17 17 17
14 14 14 15 15 15 16 17 16 17 17 17 17 18 19 19 18 17 17 17 16 17 17 17 17 18 18 19 19 18 17 17 16 16 16 17 17 17 17 17 17 17 18 18 17 17 17 17 17
15 14 14 14 15 16 16 17 16 16 17 17 17 18 19 19 19 18 17 17 17 17 17 18 19 19 19 19 20 20 19 18 18 17 16 16 17 17 17 17 17 17 17 18 17 17 17 17 17
16 14 13 13 14 15 16 17 16 16 16 16 16 17 17 19 19 18 18 18 18 17 18 18 18 19 19 19 19 19 18 17 17 17 17 17 16 16 16 15 16 16 17 17 17 16 17 17 17
17 15 15 14 14 14 16 16 16 16 16 15 15 16 17 17 18 17 17 18 18 18 18 18 18 18 18 18 17 16 16 15 14 15 16 17 17 16 15 15 15 15 15 16 17 16 16 17 17
16 16 15 15 15 15 15 16 16 15 15 15 14 15 16 16 16 16 17 17 18 18 18 18 17 18 18 17 16 15 14 14 13 14 15 16 16 16 16 15 15 15 15 15 15 15 16 16 16
17 17 16 15 15 15 15 16 15 15 15 15 15 15 15 15 15 16 16 17 17 17 17 17 16 17 17 17 16 15 14 14 15 14 15 15 15 15 14 14 14 15 15 15 15 15 16 16 17
17 18 17 16 16 15 14 14 15 16 15 15 15 15 15 15 15 15 15 16 17 17 17 16 15 16 16 15 15 14 15 15 15 15 15 14 14 14 13 13 14 14 14 14 15 15 16 16 16
18 17 17 17 16 16 15 15 16 15 16 16 15 15 15 15 15 15 15 15 16 17 16 16 16 15 15 14 14 14 15 15 15 15 15 14 14 14 13 14 14 14 14 14 14 14 15 15 16